Weather History for McCall, ID

Change the Weather History Date:

Saturday, August 17, 2013

  Actual Average Record
Temperature  
Mean Temperature 66 °F 60 °F  
Max Temperature 85 °F 78 °F 93 °F (1967)
Min Temperature 47 °F 41 °F 29 °F (1987)
Degree Days  
Heating Degree Days 0 6  
Month to date heating degree days 22 76  
Since 1 June heating degree days 302 593  
Since 1 July heating degree days 39 226  
Cooling Degree Days 1 0  
Month to date cooling degree days 37 7  
Year to date cooling degree days 160 23  
Since 1 June cooling degree days 160 23  
Growing Degree Days 16 (Base 50)    
Moisture  
Dew Point 40 °F    
Average Humidity 47    
Maximum Humidity 80    
Minimum Humidity 14    
Precipitation  
Precipitation 0.00 in 0.03 in 0.57 in (1990)
Month to date precipitation 0.04 0.34  
Year to date precipitation 11.29 12.70  
Sea Level Pressure  
Sea Level Pressure 29.98 in    
Wind  
Wind Speed 4 mph (WSW)    
Max Wind Speed 15 mph    
Max Gust Speed 18 mph    
Visibility 10 miles    
Events      
T = Trace of Precipitation, MM = Missing Value Source: NWS Daily Summary

Daily Weather History Graph

Daily Weather History Graph

Search for Another Location

Airport:

Trip Planner

Search our weather history database for the weather conditions in past years. The results will help you decide how hot, cold, wet, or windy it might be!

Date:

Astronomy

Aug. 17, 2013 Rise Set
Actual Time 6:49 AM MDT 8:46 PM MDT
Civil Twilight 6:17 AM MDT 9:18 PM MDT
Nautical Twilight 5:38 AM MDT 9:56 PM MDT
Astronomical Twilight 4:55 AM MDT 10:39 PM MDT
Moon 6:10 PM MDT (8/17) 2:52 AM MDT (8/17)
Length of Visible Light 15h 00m
Length of Day
13h 57m
Waxing Gibbous, 85% of the Moon is Illuminated
Aug 17
Waxing Gibbous
Aug 20
Full
Aug 28
Last Quarter
Sep 5
New
Sep 12
First Quarter

Hourly Weather History & Observations

Time (MDT) Temp. Dew Point Humidity Pressure Visibility Wind Dir Wind Speed Gust Speed Precip Events Conditions
12:51 AM 66.9 °F 43.0 °F 42% 29.95 in 10.0 mi North 4.6 mph - N/A   Clear
1:51 AM 55.9 °F 41.0 °F 57% 29.98 in 10.0 mi Calm Calm - N/A   Clear
2:51 AM 55.9 °F 37.0 °F 49% 29.98 in 10.0 mi Calm Calm - N/A   Clear
3:51 AM 53.1 °F 42.1 °F 66% 29.99 in 10.0 mi Calm Calm - N/A   Clear
4:51 AM 51.1 °F 42.1 °F 71% 29.99 in 10.0 mi Calm Calm - N/A   Clear
5:51 AM 51.1 °F 42.1 °F 71% 30.00 in 10.0 mi Calm Calm - N/A   Clear
6:51 AM 48.9 °F 42.1 °F 77% 30.02 in 10.0 mi Calm Calm - N/A   Clear
7:51 AM 52.0 °F 43.0 °F 71% 30.02 in 10.0 mi Calm Calm - N/A   Clear
8:51 AM 59.0 °F 41.0 °F 51% 30.03 in 10.0 mi South 4.6 mph - N/A   Clear
9:51 AM 62.1 °F 44.1 °F 52% 30.04 in 10.0 mi Calm Calm - N/A   Clear
10:51 AM 70.0 °F 46.0 °F 42% 30.01 in 10.0 mi Calm Calm - N/A   Clear
11:51 AM 75.0 °F 43.0 °F 32% 29.99 in 10.0 mi South 4.6 mph - N/A   Clear
12:51 PM 80.1 °F 42.1 °F 26% 29.97 in 10.0 mi Calm Calm - N/A   Clear
1:51 PM 82.0 °F 41.0 °F 23% 29.98 in 10.0 mi WNW 6.9 mph - N/A   Mostly Cloudy
2:51 PM 82.9 °F 34.0 °F 17% 29.97 in 10.0 mi SW 9.2 mph 16.1 mph N/A   Partly Cloudy
3:51 PM 84.0 °F 34.0 °F 17% 29.96 in 10.0 mi West 6.9 mph - N/A   Clear
4:51 PM 84.0 °F 34.0 °F 17% 29.95 in 10.0 mi SW 8.1 mph 16.1 mph N/A   Clear
5:51 PM 84.0 °F 30.9 °F 15% 29.94 in 10.0 mi South 13.8 mph - N/A   Clear
6:51 PM 82.9 °F 30.0 °F 15% 29.93 in 10.0 mi SW 8.1 mph - N/A   Clear
7:51 PM 80.1 °F 39.0 °F 23% 29.92 in 10.0 mi South 5.8 mph - N/A   Clear
8:51 PM 73.0 °F 39.0 °F 29% 29.93 in 10.0 mi NE 3.5 mph - N/A   Clear
9:51 PM 73.0 °F 43.0 °F 34% 29.95 in 10.0 mi North 9.2 mph 17.3 mph N/A   Clear
10:51 PM 71.1 °F 46.0 °F 41% 29.96 in 10.0 mi North 9.2 mph 16.1 mph N/A   Clear
11:51 PM 68.0 °F 46.9 °F 47% 29.96 in 10.0 mi Variable 4.6 mph - N/A   Clear